This is the latest recevied weather packets stored in our database for station/object CQ0XCR-11. If no packets are shown the sender has not sent any weather packets the latest 1 day(s).
| Time | Temp. | Humidity | Pressure | Rain* | Wind** | Luminosity | Snow |
|---|---|---|---|---|---|---|---|
| 1777986185 | -2.78° C | - | 6550.2 hPa | 0.25 mm | 0.45 m/s, 262° | - | - |
| 1777986055 | -2.78° C | - | 6550.2 hPa | 0 mm | 1.79 m/s, 330° | - | - |
| 1777985931 | -2.78° C | - | 6550.2 hPa | 0 mm | 2.24 m/s, 278° | - | - |
| 1777985683 | -2.78° C | - | 6550.2 hPa | 0 mm | 1.79 m/s, 325° | - | - |
| 1777985559 | -2.78° C | - | 6550.2 hPa | 0 mm | 1.34 m/s, 342° | - | - |
| 1777985435 | -2.78° C | - | 6550.2 hPa | 0 mm | 2.24 m/s, 301° | - | - |
| 1777984815 | -2.78° C | - | 6550.2 hPa | 0 mm | 1.79 m/s, 297° | - | - |
| 1777983865 | -2.78° C | - | 6550.2 hPa | 0 mm | 0.89 m/s, 316° | - | - |
| 1777983596 | -2.78° C | - | 6550.2 hPa | 0 mm | 0.89 m/s, 329° | - | - |
| 1777982831 | -2.78° C | - | 6550.2 hPa | 0 mm | 1.34 m/s, 332° | - | - |
| 1777982708 | -2.78° C | - | 6550.2 hPa | 0 mm | 2.24 m/s, 266° | - | - |
| 1777982583 | -2.78° C | - | 6550.2 hPa | 0 mm | 1.34 m/s, 21° | - | - |
| 1777982460 | -2.78° C | - | 6550.2 hPa | 0 mm | 1.34 m/s, 287° | - | - |
| 1777981964 | -2.78° C | - | 6550.2 hPa | 0 mm | 2.24 m/s, 324° | - | - |
| 1777981840 | -2.78° C | - | 6550.2 hPa | 0 mm | 1.34 m/s, 236° | - | - |
| 1777980492 | -2.78° C | - | 6550.2 hPa | 0 mm | 1.34 m/s, 346° | - | - |
| 1777979732 | -2.78° C | - | 6550.2 hPa | 0 mm | 2.68 m/s, 290° | - | - |
| 1777979276 | -2.78° C | - | 6550.2 hPa | 0 mm | 0.45 m/s, 299° | - | - |
| 1777978504 | -2.78° C | - | 6550.2 hPa | 0 mm | 1.79 m/s, 315° | - | - |
| 1777978393 | -2.78° C | - | 6550.2 hPa | 0 mm | 1.34 m/s, 270° | - | - |
* Rain since midnight (hover to see other rain measurements)
** Current wind speed in m/s (hover to see current wind gust speed)